Location: Great Malvern
(52.1167°N, 2.3167°W)
Time: 18:59:02
(UTC+00:00)

Cosmos 1833 Rocket - Pass Details

Date: 18 September 2020
Orbit: 831 x 841 km, 71.0° (Epoch: 21 October)

Event Time Altitude Azimuth Distance (km) Brightness Sun altitude
Rises 19:57:33 0° 329° (NNW) 3,408 6.8 -15.9°
Reaches altitude 10° 20:00:18 10° 340° (NNW) 2,471 5.8 -16.3°
Maximum altitude 20:05:18 31° 42° (NE) 1,454 3.8 -17.0°
Enters shadow 20:07:41 23° 82° (E) 1,739 3.9 -17.3°
